[[{"header":{"parameterUnit":"m.s-1","parameterCategory":2,"la1":30.2991,"la2":30.254,"lo1":-89.0895,"lo2":-89.0444,"dy":0.0017,"dx":0.0017,"nx":28,"ny":28,"refTime":"2024-03-29T09:00:00:Z","depth":"0","parameterNumber":2,"parameterNumberName":"U-component_of_CURRENTS"},"data":[0,0,0,0,0,0,0,0,0,0,0,0,0,0,0,0,0,0,0,0,0,0,0,0,0,0,0,0,0,0,0,0,0,0,0,0,0,0,0,0,0,0,0,0,0,0,0,0,0,0,0,0,0,0,0,0,0,0,0.245,0.245,0,0.2412,0.2412,0.2412,0.2388,0.2388,0.2388,0.2388,0.2374,0.2374,0.2374,0,0,0,0,0,0,0,0,0,0,0,0,0,0.2523,0.2521,0.245,0.245,0.2449,0.2412,0.2412,0.2411,0.2388,0.2388,0.2388,0.2388,0.2374,0.2374,0.2374,0,0,0,0,0,0,0,0,0,0,0,0,0,0.2489,0.2521,0.245,0.2433,0.2431,0.2413,0.2412,0.2411,0.2388,0.2388,0.2388,0.2388,0.2374,0.2374,0.2374,0.2377,0,0,0.2373,0.2373,0,0,0,0,0,0,0,0,0.2491,0.2486,0.2436,0.2434,0.2432,0.2404,0.2432,0.2401,0.2389,0.2405,0.2388,0.2388,0.2387,0.2385,0.2379,0.2376,0.2375,0.2373,0.2373,0.2373,0.2372,0,0,0,0,0,0,0,0.2493,0.2488,0.2436,0.2435,0.2433,0.2434,0.2429,0.2426,0.2398,0.2404,0.2402,0.2397,0.2386,0.2379,0.2378,0.2375,0.2373,0.2373,0.2372,0.2372,0.2417,0.2419,0,0,0,0,0,0,0.2496,0.249,0.2437,0.2434,0.2461,0.2433,0.2427,0.2414,0.2398,0.2395,0.2397,0.2396,0.238,0.2379,0.2378,0.2411,0.2373,0.2372,0.2372,0.2416,0.2418,0.2419,0,0,0,0,0,0,0.2498,0.2491,0.2438,0.2462,0.2455,0.2432,0.2417,0.2413,0.2409,0.2393,0.239,0.2397,0.238,0.2378,0.2388,0.2409,0.2372,0.2372,0.2414,0.2417,0.2418,0.2458,0,0,0,0,0,0,0.25,0.2492,0.2489,0.2462,0.2454,0.2434,0.2417,0.2413,0.2406,0.2404,0.2392,0.239,0.2379,0.2388,0.2387,0.2408,0.2372,0.2413,0.2415,0.2418,0.2455,0.2461,0.2466,0,0,0,0,0,0.2502,0.2497,0.2489,0.2482,0.2448,0.2434,0.2431,0.2414,0.2406,0.2408,0.2405,0.239,0.2405,0.2389,0.2388,0.2409,0.2411,0.2415,0.2418,0.2452,0.246,0.2466,0,0,0,0,0,0,0.2517,0.2493,0.2483,0.2468,0.2456,0.243,0.2429,0.2418,0.2415,0.2415,0.2401,0.24,0.2422,0.2411,0.2394,0.2432,0.2408,0.2411,0.2435,0.2442,0.2448,0.2471,0.2371,0,0,0,0,0,0.2521,0.2514,0.2491,0.2478,0.2475,0.2454,0.2447,0.2436,0.2426,0.2424,0.2416,0.2418,0.2434,0.2433,0.2441,0.2452,0.2487,0.2469,0.2474,0.2479,0.2499,0.2576,0.259,0.243,0.243,0.2429,0,0,0.2518,0.2508,0.25,0.2483,0.2471,0.2471,0.245,0.2441,0.2448,0.2424,0.2435,0.2439,0.2445,0.2465,0.2474,0.2456,0.2544,0.2483,0.2487,0.2505,0.2581,0.2596,0.261,0.2432,0.2431,0.2431,0,0,0.2514,0.2505,0.2501,0.25,0.2489,0.2483,0.2483,0.2464,0.2466,0.2474,0.2473,0.2493,0.2492,0.2511,0.2519,0.2563,0.2578,0.256,0.2598,0.2672,0.2686,0.2699,0.2766,0.2784,0.2554,0.2554,0.2555,0,0.2515,0.2503,0.2498,0.2501,0.2501,0.2492,0.2492,0.25,0.2488,0.25,0.2485,0.2525,0.2523,0.2573,0.2588,0.2578,0.262,0.2567,0.268,0.2694,0.2706,0.2772,0.2792,0.2557,0.2556,0.2556,0.2556,0,0.2505,0.2507,0.2507,0.2511,0.2517,0.2514,0.2525,0.2537,0.2538,0.2544,0.2588,0.2595,0.2622,0.2624,0.2618,0.2703,0.2705,0.2685,0.2663,0.2725,0.279,0.281,0.256,0.2559,0.2559,0.2558,0,0,0.2471,0.2495,0.2496,0.2505,0.2521,0.2521,0.2556,0.2579,0.2611,0.2619,0.2668,0.2696,0.2705,0.2719,0.2719,0.2774,0.2893,0.2768,0.2771,0.2835,0.3065,0.2973,0.2986,0.2894,0.2898,0.2901,0.3075,0,0.2462,0.2476,0.2491,0.2509,0.2515,0.254,0.2577,0.2606,0.2636,0.2687,0.2721,0.2766,0.2741,0.2763,0.2819,0.2881,0.2948,0.2848,0.2994,0.2999,0.2911,0.3007,0.2797,0.2926,0.3095,0.3098,0.31,0,0.2438,0.2457,0.2471,0.2516,0.2521,0.2539,0.26,0.263,0.2712,0.2743,0.2802,0.2833,0.2925,0.2891,0.3044,0.2984,0.3038,0.3077,0.3085,0.3003,0.2945,0.2891,0.2956,0.2847,0.3132,0.3129,0.3127,0,0.2406,0.244,0.2453,0.2465,0.2516,0.2538,0.257,0.2642,0.2694,0.2788,0.2851,0.2938,0.3014,0.3093,0.3168,0.3126,0.3339,0.3286,0.3259,0.3253,0.3105,0.3078,0.308,0.3413,0.3413,0.3412,0.3412,0,0.2382,0.2393,0.2441,0.2448,0.2481,0.2522,0.2579,0.2626,0.2731,0.2819,0.2881,0.2983,0.3076,0.3192,0.3231,0.3317,0.3397,0.3302,0.3304,0.311,0.3083,0.3003,0.2971,0.3419,0.3417,0.3416,0.3415,0,0.2338,0.2368,0.2389,0.2445,0.2462,0.2485,0.2581,0.2641,0.2737,0.2865,0.2909,0.3066,0.3207,0.3283,0.3433,0.3406,0.337,0.3488,0.3249,0.3218,0.3031,0.3009,0.2968,0.2894,0.3483,0.3482,0.3481,0,0.2313,0.2319,0.2374,0.2399,0.2424,0.2475,0.2527,0.2625,0.271,0.2918,0.2995,0.3165,0.3273,0.3438,0.3409,0.3457,0.337,0.3296,0.3161,0.3021,0.3001,0.2897,0.2831,0.2994,0.2989,0.2985,0.2982,0,0.2277,0.2299,0.2328,0.238,0.2426,0.2485,0.2572,0.2634,0.2783,0.2894,0.3071,0.3169,0.3298,0.3242,0.3276,0.327,0.3083,0.3214,0.3139,0.2685,0.2507,0.2433,0.2887,0.2947,0.295,0.2953,0.2955,0.2956,0.2258,0.2273,0.2325,0.2368,0.2427,0.2496,0.253,0.2637,0.2747,0.2879,0.3032,0.3091,0.3057,0.3051,0.3028,0.2802,0.2874,0.2671,0.2684,0.2615,0.244,0.2813,0.2819,0.2822,0.2824,0.2826,0.2828,0,0.225,0.2278,0.2317,0.2381,0.2435,0.2476,0.257,0.2588,0.2673,0.2762,0.2863,0.277,0.2677,0.2616,0.2407,0.2271,0.2169,0.2211,0.2011,0.1998,0.2385,0.2254,0.205,0.205,0.2051,0.2051,0.2051,0.2051,0.2255,0.2287,0.2305,0.2377,0.2423,0.2468,0.2501,0.2499,0.253,0.2469,0.2391,0.2384,0.2326,0.2165,0.1939,0.1876,0.1739,0.1629,0.1726,0.1968,0.2011,0.2051,0.1919,0.1648,0.1648,0.1185,0.1182,0.1179]},{"header":{"parameterUnit":"m.s-1","parameterCategory":2,"la1":30.2991,"la2":30.254,"lo1":-89.0895,"lo2":-89.0444,"dy":0.0017,"dx":0.0017,"nx":28,"ny":28,"refTime":"2024-03-29T09:00:00:Z","depth":"0","parameterNumber":3,"parameterNumberName":"V-component_of_CURRENTS"},"data":[0,0,0,0,0,0,0,0,0,0,0,0,0,0,0,0,0,0,0,0,0,0,0,0,0,0,0,0,0,0,0,0,0,0,0,0,0,0,0,0,0,0,0,0,0,0,0,0,0,0,0,0,0,0,0,0,0,0,0.0257,0.0256,0,0.0237,0.0236,0.0236,0.0215,0.0215,0.0214,0.0214,0.019,0.019,0.019,0,0,0,0,0,0,0,0,0,0,0,0,0,0.0265,0.0265,0.0257,0.0256,0.0256,0.0237,0.0236,0.0236,0.0215,0.0215,0.0214,0.0214,0.0191,0.019,0.019,0,0,0,0,0,0,0,0,0,0,0,0,0,0.0255,0.0265,0.0257,0.0243,0.0241,0.0237,0.0236,0.0236,0.0215,0.0215,0.0214,0.0214,0.0191,0.019,0.019,0.0197,0,0,0.0188,0.0188,0,0,0,0,0,0,0,0,0.0256,0.0255,0.0245,0.0244,0.0242,0.0227,0.023,0.0222,0.0215,0.0225,0.0214,0.0213,0.0203,0.0201,0.0199,0.0195,0.0194,0.0188,0.0188,0.0188,0.0188,0,0,0,0,0,0,0,0.0256,0.0255,0.0249,0.0245,0.0243,0.0234,0.0232,0.0229,0.0217,0.0225,0.0223,0.022,0.0202,0.02,0.0198,0.0194,0.0188,0.0188,0.0187,0.0187,0.0196,0.0196,0,0,0,0,0,0,0.0259,0.0256,0.025,0.0248,0.0247,0.0234,0.0232,0.0233,0.0217,0.0214,0.0221,0.0219,0.0201,0.0199,0.0197,0.0217,0.0188,0.0187,0.0187,0.0195,0.0196,0.0197,0,0,0,0,0,0,0.026,0.0259,0.025,0.0251,0.0249,0.0234,0.0236,0.0233,0.0231,0.0214,0.0211,0.0222,0.02,0.0198,0.0202,0.0215,0.0187,0.0187,0.0195,0.0196,0.0196,0.0247,0,0,0,0,0,0,0.026,0.0259,0.0262,0.0252,0.0249,0.0252,0.0236,0.0233,0.023,0.0228,0.0214,0.0211,0.02,0.0203,0.0201,0.0214,0.0186,0.0194,0.0195,0.0196,0.0245,0.025,0.0254,0,0,0,0,0,0.026,0.0269,0.0262,0.0261,0.0253,0.0253,0.0251,0.0238,0.023,0.0234,0.0227,0.0212,0.0208,0.0203,0.0201,0.0214,0.0194,0.0195,0.0196,0.0243,0.0249,0.0254,0,0,0,0,0,0,0.0271,0.0267,0.026,0.0265,0.026,0.0249,0.025,0.0243,0.024,0.0237,0.0222,0.0219,0.0227,0.0213,0.0209,0.0218,0.0197,0.0198,0.0233,0.0238,0.0243,0.0264,0.0186,0,0,0,0,0,0.0276,0.0283,0.0273,0.0278,0.0276,0.0264,0.0262,0.0254,0.0249,0.0247,0.0239,0.0231,0.0231,0.0229,0.0224,0.0232,0.0234,0.0237,0.0242,0.0246,0.0261,0.0274,0.0281,0.02,0.02,0.02,0,0,0.028,0.028,0.0283,0.0281,0.0275,0.0284,0.0262,0.0262,0.0273,0.0245,0.026,0.0248,0.0236,0.0246,0.0247,0.0236,0.0269,0.0247,0.0251,0.0264,0.0276,0.0284,0.0291,0.0201,0.0201,0.0201,0,0,0.0299,0.0294,0.0306,0.0306,0.0302,0.0298,0.03,0.0292,0.0292,0.0301,0.0286,0.0287,0.028,0.0281,0.0278,0.0305,0.0293,0.0296,0.0337,0.0349,0.0356,0.0362,0.0377,0.0384,0.0298,0.0298,0.0298,0,0.0304,0.0321,0.0309,0.0322,0.033,0.0308,0.0327,0.0325,0.0321,0.0333,0.0311,0.0321,0.0301,0.0329,0.0331,0.0317,0.0322,0.0318,0.0356,0.0362,0.0368,0.0381,0.0389,0.03,0.03,0.03,0.0299,0,0.0332,0.0347,0.0355,0.0369,0.0374,0.0386,0.0382,0.0391,0.0385,0.0386,0.0407,0.0385,0.0395,0.0381,0.0362,0.0394,0.0385,0.0362,0.0346,0.038,0.0391,0.0398,0.0304,0.0303,0.0302,0.0302,0,0,0.0347,0.0372,0.0376,0.0398,0.0402,0.0415,0.0435,0.0457,0.0488,0.0472,0.0517,0.0495,0.0485,0.0483,0.046,0.046,0.0491,0.0429,0.0428,0.045,0.0526,0.0492,0.0496,0.0475,0.0476,0.0477,0.0519,0,0.0376,0.0421,0.0422,0.0468,0.0492,0.0488,0.0517,0.0532,0.054,0.0576,0.0558,0.0586,0.0524,0.0537,0.0527,0.0512,0.0511,0.0483,0.0485,0.0485,0.0457,0.0503,0.0494,0.0528,0.0525,0.0527,0.0527,0,0.0405,0.0437,0.0488,0.0537,0.0547,0.0572,0.0625,0.0647,0.0681,0.0689,0.0705,0.0695,0.071,0.0645,0.0637,0.0624,0.058,0.0552,0.0553,0.0512,0.0464,0.0493,0.054,0.0439,0.0537,0.0537,0.0536,0,0.0436,0.0485,0.0535,0.055,0.0596,0.0626,0.0652,0.0687,0.073,0.0773,0.0819,0.0813,0.0848,0.0788,0.0723,0.0688,0.0712,0.0656,0.0585,0.0582,0.057,0.0564,0.0527,0.0644,0.0644,0.0644,0.0644,0,0.0472,0.0513,0.0559,0.0588,0.0661,0.0673,0.0751,0.0772,0.0832,0.0916,0.0887,0.0969,0.0887,0.0886,0.0784,0.0723,0.0762,0.0613,0.0597,0.0586,0.0581,0.0487,0.0433,0.0646,0.0645,0.0645,0.0645,0,0.0501,0.0527,0.0592,0.0654,0.0677,0.0732,0.0815,0.0875,0.0923,0.1037,0.1064,0.1115,0.1117,0.1014,0.0948,0.0832,0.0695,0.0708,0.0701,0.0683,0.0492,0.0441,0.0408,0.0372,0.064,0.0639,0.0639,0,0.0522,0.0559,0.0641,0.0688,0.0721,0.0799,0.0859,0.0915,0.0989,0.1143,0.1214,0.1263,0.1329,0.1214,0.1006,0.0833,0.0714,0.0693,0.0608,0.0499,0.0432,0.0394,0.0362,0.0617,0.0617,0.0616,0.0616,0,0.0569,0.0597,0.0653,0.0745,0.0817,0.0899,0.0991,0.1064,0.1163,0.1294,0.1473,0.1549,0.1449,0.1298,0.1035,0.0897,0.0622,0.0676,0.0576,0.0428,0.0376,0.0327,0.057,0.0612,0.0612,0.0613,0.0613,0.0613,0.0606,0.0654,0.0725,0.0813,0.0893,0.099,0.1073,0.1203,0.1363,0.1574,0.1642,0.1785,0.1525,0.1181,0.0987,0.0588,0.06,0.0454,0.0411,0.0388,0.0325,0.0556,0.0562,0.0563,0.0563,0.0563,0.0563,0,0.0649,0.0703,0.0786,0.0888,0.0972,0.1006,0.1158,0.1272,0.1489,0.1692,0.1867,0.179,0.1483,0.1125,0.059,0.036,0.0282,0.0236,0.018,0.0166,0.0385,0.0354,0.0302,0.0302,0.0302,0.0302,0.0302,0.0302,0.0676,0.0751,0.079,0.0929,0.1002,0.1132,0.1221,0.1426,0.1596,0.184,0.1917,0.1937,0.1618,0.0773,0.0238,0.0134,-0.0008,-0.0045,-0.01,0.0033,0.005,0.0066,0.0023,-0.0098,-0.0098,-0.03,-0.0302,-0.0304]}],[{"header":{"parameterUnit":"m.s-1","parameterCategory":2,"la1":30.2991,"la2":30.254,"lo1":-89.0895,"lo2":-89.0444,"dy":0.0017,"dx":0.0017,"nx":28,"ny":28,"refTime":"2024-03-29T09:00:00:Z","depth":"2","parameterNumber":2,"parameterNumberName":"U-component_of_CURRENTS"},"data":[0,0,0,0,0,0,0,0,0,0,0,0,0,0,0,0,0,0,0,0,0,0,0,0,0,0,0,0,0,0,0,0,0,0,0,0,0,0,0,0,0,0,0,0,0,0,0,0,0,0,0,0,0,0,0,0,0,0,0.189,0.1891,0,0.1895,0.1895,0.1895,0.1898,0.1898,0.1898,0.1898,0.1906,0.1906,0.1906,0,0,0,0,0,0,0,0,0,0,0,0,0,0.1909,0.1908,0.189,0.1891,0.1891,0.1895,0.1895,0.1895,0.1898,0.1898,0.1898,0.1898,0.1906,0.1906,0.1906,0,0,0,0,0,0,0,0,0,0,0,0,0,0.1904,0.1908,0.189,0.1894,0.1895,0.1895,0.1895,0.1895,0.1897,0.1898,0.1898,0.1898,0.1906,0.1906,0.1906,0.19,0,0,0.1906,0.1906,0,0,0,0,0,0,0,0,0.1904,0.1903,0.1893,0.1894,0.1895,0.1898,0.1904,0.1897,0.1897,0.1894,0.1898,0.1899,0.1905,0.1905,0.1902,0.19,0.1901,0.1906,0.1906,0.1906,0.1906,0,0,0,0,0,0,0,0.1904,0.1903,0.189,0.1894,0.1895,0.1905,0.1904,0.1903,0.1896,0.1895,0.1895,0.1899,0.1905,0.1902,0.1902,0.1901,0.1906,0.1906,0.1906,0.1906,0.1969,0.1971,0,0,0,0,0,0,0.1906,0.1903,0.189,0.189,0.1903,0.1904,0.1903,0.1895,0.1896,0.1897,0.1899,0.1899,0.1902,0.1902,0.1903,0.1947,0.1906,0.1906,0.1906,0.1968,0.197,0.1972,0,0,0,0,0,0,0.1906,0.1904,0.189,0.1899,0.1898,0.1903,0.1894,0.1895,0.1904,0.19,0.19,0.191,0.1902,0.1903,0.1923,0.1946,0.1906,0.1906,0.1966,0.1968,0.1971,0.2004,0,0,0,0,0,0,0.1906,0.1904,0.1901,0.1899,0.1898,0.19,0.1894,0.1895,0.1906,0.1907,0.1909,0.1909,0.1902,0.1923,0.1923,0.1945,0.1906,0.1964,0.1967,0.197,0.2001,0.2007,0.2013,0,0,0,0,0,0.1907,0.1902,0.19,0.1899,0.1892,0.19,0.1901,0.1904,0.1907,0.1914,0.1922,0.191,0.1943,0.1924,0.1923,0.1946,0.1962,0.1966,0.197,0.1998,0.2006,0.2013,0,0,0,0,0,0,0.1901,0.1902,0.19,0.1892,0.1901,0.1902,0.1909,0.1912,0.1923,0.1927,0.1923,0.1924,0.1949,0.1948,0.1928,0.1978,0.1954,0.1958,0.1976,0.1983,0.1989,0.1997,0.1906,0,0,0,0,0,0.1899,0.1901,0.1902,0.1899,0.1904,0.1909,0.1914,0.1918,0.1927,0.1932,0.1934,0.1947,0.1962,0.1973,0.1978,0.2003,0.2023,0.2022,0.2028,0.2033,0.2043,0.209,0.2101,0.1984,0.1984,0.1984,0,0,0.1901,0.1899,0.1902,0.19,0.1906,0.1917,0.1913,0.1926,0.1943,0.1931,0.1955,0.1961,0.1972,0.1999,0.2012,0.2004,0.2082,0.2038,0.2042,0.2049,0.2095,0.2107,0.2117,0.1986,0.1986,0.1985,0,0,0.1904,0.19,0.1904,0.1913,0.1924,0.193,0.1938,0.1946,0.196,0.1984,0.1984,0.201,0.2026,0.2043,0.2054,0.21,0.2106,0.2104,0.2146,0.2192,0.2202,0.2211,0.2266,0.228,0.2114,0.2114,0.2114,0,0.1903,0.1902,0.1908,0.1914,0.1927,0.1938,0.1951,0.1967,0.1983,0.2,0.2,0.2046,0.2051,0.2095,0.2116,0.2113,0.2144,0.2112,0.2199,0.2208,0.2217,0.2271,0.2286,0.2116,0.2116,0.2116,0.2116,0,0.1906,0.1913,0.1919,0.1931,0.1946,0.196,0.1984,0.2005,0.2025,0.2039,0.2086,0.2103,0.2135,0.2144,0.2146,0.221,0.2215,0.2194,0.2177,0.223,0.2285,0.2299,0.2119,0.2119,0.2118,0.2117,0,0,0.1888,0.1914,0.1919,0.193,0.1957,0.1969,0.2007,0.204,0.2072,0.2101,0.2149,0.2184,0.2198,0.2213,0.2222,0.2267,0.2357,0.2264,0.2265,0.2313,0.2476,0.2376,0.2382,0.235,0.2353,0.2354,0.2496,0,0.1889,0.19,0.192,0.195,0.1959,0.1993,0.2029,0.2065,0.2102,0.2152,0.2191,0.2236,0.2224,0.2253,0.2296,0.2344,0.2395,0.2322,0.2423,0.2427,0.2324,0.2394,0.2168,0.2264,0.251,0.2512,0.2514,0,0.1884,0.1893,0.1914,0.1958,0.1968,0.1992,0.2054,0.2095,0.2166,0.2202,0.2257,0.2282,0.2365,0.2341,0.246,0.2417,0.2454,0.2485,0.249,0.2393,0.2352,0.2249,0.2281,0.2538,0.2536,0.2534,0.2532,0,0.1857,0.1893,0.191,0.1924,0.1973,0.2,0.2038,0.2104,0.2147,0.2245,0.2296,0.2368,0.2446,0.2491,0.2549,0.2521,0.2672,0.2638,0.2584,0.2578,0.2402,0.2375,0.2718,0.2717,0.2717,0.2717,0.2716,0,0.1842,0.1857,0.1901,0.1908,0.1942,0.1993,0.2047,0.2098,0.2184,0.2239,0.2327,0.2388,0.2491,0.2571,0.2592,0.2639,0.2711,0.261,0.2609,0.2408,0.2382,0.2621,0.2608,0.2722,0.2721,0.272,0.2719,0,0.1807,0.1835,0.186,0.1912,0.1926,0.1959,0.2036,0.2083,0.2183,0.2266,0.2305,0.245,0.2563,0.2635,0.2743,0.2709,0.2744,0.2734,0.2495,0.2461,0.2615,0.2602,0.2706,0.2704,0.2702,0.27,0.2699,0,0.1785,0.1795,0.1848,0.1865,0.1888,0.194,0.1975,0.2066,0.2112,0.2278,0.2313,0.2471,0.2536,0.2673,0.265,0.2679,0.2739,0.2476,0.2362,0.2626,0.2615,0.2606,0.2596,0.2165,0.216,0.2155,0.2151,0,0.1746,0.1774,0.1789,0.1829,0.1864,0.1903,0.1956,0.198,0.21,0.2167,0.2277,0.2347,0.2486,0.2419,0.2458,0.2428,0.2445,0.2381,0.2744,0.2181,0.212,0.2108,0.2116,0.211,0.2114,0.2117,0.2119,0.2121,0.1716,0.1722,0.1756,0.1779,0.1833,0.1864,0.1862,0.1915,0.196,0.203,0.2146,0.2189,0.2228,0.2179,0.2108,0.2063,0.2234,0.212,0.2133,0.2151,0.204,0.1977,0.1922,0.1925,0.1927,0.1929,0.1931,0,0.1683,0.1686,0.1705,0.173,0.1757,0.1819,0.1846,0.1806,0.1812,0.1886,0.194,0.1786,0.1746,0.1799,0.1659,0.164,0.1612,0.157,0.1517,0.1559,0.1597,0.1456,0.1184,0.1182,0.1179,0.1177,0,0,0.1667,0.1653,0.1647,0.164,0.1681,0.1686,0.1694,0.1626,0.1625,0.1574,0.1573,0.1706,0.1756,0.1462,0.1402,0.1275,0.1409,0.1218,0.1819,0.1801,0.1835,0.1916,0.1747,0,0,0,0,0]},{"header":{"parameterUnit":"m.s-1","parameterCategory":2,"la1":30.2991,"la2":30.254,"lo1":-89.0895,"lo2":-89.0444,"dy":0.0017,"dx":0.0017,"nx":28,"ny":28,"refTime":"2024-03-29T09:00:00:Z","depth":"2","parameterNumber":3,"parameterNumberName":"V-component_of_CURRENTS"},"data":[0,0,0,0,0,0,0,0,0,0,0,0,0,0,0,0,0,0,0,0,0,0,0,0,0,0,0,0,0,0,0,0,0,0,0,0,0,0,0,0,0,0,0,0,0,0,0,0,0,0,0,0,0,0,0,0,0,0,-0.0007,-0.0008,0,-0.0022,-0.0022,-0.0022,-0.0036,-0.0036,-0.0036,-0.0036,-0.0058,-0.0059,-0.0059,0,0,0,0,0,0,0,0,0,0,0,0,0,-0.0,-0.0,-0.0007,-0.0008,-0.0008,-0.0022,-0.0022,-0.0022,-0.0036,-0.0036,-0.0036,-0.0036,-0.0058,-0.0059,-0.0059,0,0,0,0,0,0,0,0,0,0,0,0,0,-0.0008,-0.0,-0.0007,-0.0016,-0.0017,-0.0022,-0.0022,-0.0022,-0.0036,-0.0036,-0.0036,-0.0036,-0.0058,-0.0059,-0.0059,-0.006,0,0,-0.0062,-0.0062,0,0,0,0,0,0,0,0,-0.0008,-0.0009,-0.0014,-0.0015,-0.0016,-0.0027,-0.0028,-0.0035,-0.0036,-0.0029,-0.0036,-0.0036,-0.0048,-0.005,-0.0053,-0.0061,-0.0062,-0.0062,-0.0062,-0.0062,-0.0063,0,0,0,0,0,0,0,-0.0007,-0.0008,-0.0014,-0.0014,-0.0015,-0.0022,-0.0023,-0.0029,-0.0038,-0.003,-0.003,-0.0031,-0.0049,-0.0052,-0.0053,-0.0063,-0.0062,-0.0062,-0.0063,-0.0063,-0.0063,-0.0063,0,0,0,0,0,0,-0.0004,-0.0008,-0.0013,-0.0014,-0.0012,-0.0022,-0.0023,-0.0024,-0.0038,-0.004,-0.0031,-0.0032,-0.0051,-0.0052,-0.0054,-0.0039,-0.0062,-0.0063,-0.0064,-0.0064,-0.0063,-0.0063,0,0,0,0,0,0,-0.0004,-0.0004,-0.0013,-0.0011,-0.0012,-0.0021,-0.0022,-0.0024,-0.0025,-0.0039,-0.0041,-0.003,-0.0051,-0.0053,-0.0052,-0.0041,-0.0063,-0.0064,-0.0064,-0.0064,-0.0063,-0.002,0,0,0,0,0,0,-0.0003,-0.0004,-0.0004,-0.0011,-0.0012,-0.001,-0.0022,-0.0024,-0.0025,-0.0026,-0.0038,-0.0041,-0.0051,-0.005,-0.0052,-0.0042,-0.0065,-0.0065,-0.0064,-0.0063,-0.0022,-0.0018,-0.0014,0,0,0,0,0,-0.0003,0.0001,-0.0004,-0.0005,-0.0012,-0.001,-0.0011,-0.0019,-0.0024,-0.0021,-0.0027,-0.004,-0.0047,-0.005,-0.0053,-0.0042,-0.0065,-0.0064,-0.0063,-0.0023,-0.0018,-0.0014,0,0,0,0,0,0,0.0005,-0.0,-0.0006,-0.0004,-0.0005,-0.0012,-0.001,-0.0015,-0.0018,-0.002,-0.0033,-0.0036,-0.0032,-0.0043,-0.0047,-0.0041,-0.0059,-0.0058,-0.0028,-0.0023,-0.002,-0.0006,-0.0065,0,0,0,0,0,0.0007,0.0009,0.0003,0.0006,0.0005,-0.0002,-0.0003,-0.0007,-0.0011,-0.0012,-0.002,-0.0028,-0.003,-0.0031,-0.0038,-0.0033,-0.0043,-0.0028,-0.0025,-0.0021,-0.0013,-0.0019,-0.0015,-0.006,-0.006,-0.006,0,0,0.0011,0.0008,0.001,0.0008,0.0005,0.0014,-0.0003,-0.0,0.001,-0.0014,-0.0003,-0.0016,-0.0027,-0.0021,-0.002,-0.0027,-0.0014,-0.002,-0.0017,-0.001,-0.0018,-0.0013,-0.001,-0.0059,-0.0059,-0.0059,0,0,0.0027,0.0019,0.0027,0.0029,0.0028,0.0025,0.0028,0.0023,0.0024,0.0032,0.0017,0.0014,0.0009,0.0006,0.0004,0.0024,0.0004,0.0018,0.0051,0.0044,0.0048,0.0051,0.0045,0.0047,0.0022,0.0022,0.0022,0,0.0031,0.0043,0.0031,0.0042,0.005,0.0034,0.0051,0.005,0.0048,0.0054,0.0041,0.0039,0.0025,0.0039,0.0045,0.0034,0.0025,0.0036,0.005,0.0053,0.0055,0.0048,0.005,0.0024,0.0024,0.0024,0.0024,0,0.0057,0.0067,0.0074,0.0084,0.0089,0.0101,0.0099,0.0105,0.0101,0.0099,0.0108,0.009,0.0092,0.0083,0.0071,0.0084,0.0071,0.0054,0.004,0.0062,0.0053,0.0054,0.0028,0.0027,0.0026,0.0026,0,0,0.0071,0.0088,0.0093,0.011,0.0114,0.0126,0.0142,0.0156,0.0176,0.0162,0.0188,0.0173,0.0158,0.0155,0.0136,0.0128,0.0134,0.0102,0.0101,0.0099,0.012,0.0088,0.0086,0.0118,0.0118,0.0119,0.0107,0,0.0097,0.0131,0.0132,0.0172,0.0191,0.0187,0.0209,0.0217,0.0218,0.0237,0.0217,0.0229,0.0188,0.0194,0.0179,0.0152,0.0139,0.0138,0.0096,0.0095,0.0067,0.0088,0.0114,0.0104,0.0108,0.0108,0.0109,0,0.0126,0.0147,0.0189,0.0226,0.0235,0.0256,0.0291,0.031,0.0321,0.0323,0.0322,0.0303,0.03,0.0258,0.022,0.0222,0.0176,0.0144,0.0143,0.01,0.0066,0.0082,0.0106,0.011,0.011,0.011,0.011,0,0.0151,0.019,0.0229,0.0241,0.0275,0.0299,0.032,0.0337,0.0367,0.0383,0.0409,0.0381,0.04,0.033,0.026,0.0244,0.0212,0.0181,0.0105,0.0103,0.0111,0.0108,0.0146,0.0146,0.0146,0.0146,0.0146,0,0.0182,0.0215,0.0247,0.0271,0.0326,0.0337,0.0395,0.0409,0.0443,0.0495,0.0462,0.0504,0.0421,0.0389,0.0293,0.0212,0.0237,0.0119,0.01,0.0126,0.0124,0.0116,0.0113,0.0145,0.0145,0.0145,0.0145,0,0.0206,0.0225,0.0276,0.0322,0.0341,0.0384,0.0447,0.049,0.0518,0.0588,0.0602,0.0613,0.0582,0.0475,0.0384,0.028,0.0182,0.014,0.0174,0.0159,0.0067,0.0066,0.006,0.0059,0.0058,0.0057,0.0056,0,0.0221,0.0249,0.0314,0.0352,0.0377,0.0439,0.0486,0.0524,0.0576,0.0661,0.0705,0.0708,0.0724,0.0576,0.0396,0.0224,0.0192,0.0118,0.0081,0.0077,0.0059,0.006,0.006,0.0113,0.0113,0.0113,0.0113,0,0.0251,0.0275,0.0318,0.0394,0.0452,0.0519,0.0589,0.0643,0.0709,0.0794,0.09,0.0922,0.0792,0.0651,0.0403,0.0277,0.0142,0.0108,0.0115,0.0121,0.0124,0.0107,0.0107,0.0112,0.0112,0.0112,0.0112,0.0112,0.0275,0.0309,0.0367,0.044,0.0507,0.0594,0.0667,0.0769,0.0889,0.1023,0.1022,0.1067,0.0876,0.058,0.0369,0.014,0.0144,0.0053,0.0056,0.0058,0.0057,0.0056,0.0032,0.0031,0.0031,0.0031,0.0031,0,0.0304,0.0343,0.0409,0.0499,0.0579,0.0606,0.0733,0.0837,0.1014,0.1111,0.1204,0.1021,0.0851,0.062,0.029,0.0082,0.0073,0.0011,0.0052,0.0055,0.0057,0.0057,0.0031,0.003,0.003,0.0029,0,0,0.0322,0.0381,0.0412,0.0537,0.0605,0.0721,0.0802,0.0989,0.1097,0.1227,0.1242,0.1205,0.092,0.0672,0.0406,0.0226,0.0184,0.0183,0.0206,0.029,0.0295,0.0106,0.0111,0,0,0,0,0]}],[{"header":{"parameterUnit":"m.s-1","parameterCategory":2,"la1":30.2991,"la2":30.254,"lo1":-89.0895,"lo2":-89.0444,"dy":0.0017,"dx":0.0017,"nx":28,"ny":28,"refTime":"2024-03-29T09:00:00:Z","depth":"4","parameterNumber":2,"parameterNumberName":"U-component_of_CURRENTS"},"data":[0,0,0,0,0,0,0,0,0,0,0,0,0,0,0,0,0,0,0,0,0,0,0,0,0,0,0,0,0,0,0,0,0,0,0,0,0,0,0,0,0,0,0,0,0,0,0,0,0,0,0,0,0,0,0,0,0,0,0.1083,0.1084,0,0.1133,0.1133,0.1133,0.1177,0.1178,0.1179,0.1179,0.1229,0.1229,0.123,0,0,0,0,0,0,0,0,0,0,0,0,0,0.1028,0.1028,0.1083,0.1084,0.1085,0.1133,0.1133,0.1134,0.1177,0.1178,0.1179,0.118,0.1229,0.1229,0.123,0,0,0,0,0,0,0,0,0,0,0,0,0,0.106,0.1028,0.1083,0.1114,0.1117,0.1132,0.1133,0.1134,0.1177,0.1178,0.1179,0.118,0.1228,0.1229,0.123,0.1217,0,0,0.1233,0.1234,0,0,0,0,0,0,0,0,0.1058,0.1062,0.1108,0.1111,0.1115,0.1151,0.1132,0.1162,0.1177,0.1152,0.1179,0.1181,0.1203,0.1206,0.1211,0.1219,0.1221,0.1234,0.1234,0.1235,0.1235,0,0,0,0,0,0,0,0.1056,0.106,0.1101,0.1109,0.1113,0.1125,0.1131,0.1137,0.117,0.1155,0.1158,0.1166,0.1205,0.121,0.1213,0.1222,0.1234,0.1234,0.1235,0.1235,0.1302,0.1303,0,0,0,0,0,0,0.1052,0.1058,0.11,0.1103,0.1091,0.1125,0.1132,0.1137,0.117,0.1177,0.1165,0.1168,0.1208,0.1211,0.1214,0.1276,0.1235,0.1236,0.1236,0.1301,0.1302,0.1303,0,0,0,0,0,0,0.1051,0.1055,0.1098,0.1083,0.1089,0.1126,0.1132,0.1138,0.117,0.1179,0.1185,0.1195,0.1209,0.1213,0.1245,0.1275,0.1236,0.1237,0.1299,0.1301,0.1303,0.1349,0,0,0,0,0,0,0.1049,0.1054,0.1069,0.1082,0.109,0.1123,0.1131,0.1138,0.1173,0.1178,0.1205,0.121,0.121,0.1243,0.1246,0.1276,0.1238,0.1298,0.13,0.1302,0.1346,0.1353,0.1358,0,0,0,0,0,0.1046,0.1058,0.1069,0.1075,0.1105,0.1124,0.113,0.1157,0.1173,0.119,0.1212,0.121,0.1259,0.1245,0.1248,0.1279,0.1297,0.1299,0.1302,0.1344,0.1351,0.1358,0,0,0,0,0,0,0.1047,0.1064,0.1076,0.1095,0.1117,0.1133,0.1154,0.1171,0.12,0.1214,0.1221,0.1226,0.1265,0.1264,0.1248,0.1304,0.1279,0.1282,0.131,0.1317,0.1323,0.1323,0.1239,0,0,0,0,0,0.1051,0.1064,0.1083,0.1102,0.1115,0.1139,0.1156,0.1175,0.1197,0.1213,0.123,0.1252,0.1272,0.1289,0.13,0.133,0.1335,0.1353,0.1358,0.1363,0.1366,0.1403,0.1412,0.1312,0.1312,0.1312,0,0,0.1057,0.1069,0.1078,0.1103,0.1123,0.1143,0.1152,0.1185,0.1209,0.1212,0.1255,0.127,0.1283,0.1317,0.1335,0.1325,0.1395,0.1366,0.137,0.137,0.1407,0.1416,0.1425,0.1313,0.1313,0.1313,0,0,0.1065,0.1087,0.1098,0.1118,0.1152,0.1165,0.118,0.121,0.1235,0.1273,0.1282,0.1317,0.1347,0.1362,0.1373,0.1416,0.142,0.1426,0.1462,0.1498,0.1507,0.1514,0.1537,0.1546,0.1434,0.1434,0.1434,0,0.1076,0.109,0.1107,0.1125,0.1146,0.1177,0.1199,0.1224,0.1262,0.1285,0.1296,0.1356,0.1368,0.1409,0.143,0.143,0.1448,0.1435,0.1506,0.1513,0.152,0.1541,0.1551,0.1437,0.1437,0.1436,0.1436,0,0.1085,0.1108,0.112,0.1149,0.1173,0.12,0.1233,0.1267,0.1304,0.1328,0.1386,0.1408,0.1446,0.1459,0.1462,0.1519,0.1515,0.1505,0.1488,0.1534,0.1553,0.1562,0.144,0.144,0.1439,0.1438,0,0,0.1079,0.1118,0.1126,0.1143,0.1191,0.1207,0.1256,0.13,0.1338,0.1386,0.1434,0.1481,0.1504,0.1517,0.153,0.1565,0.1633,0.1566,0.1566,0.1587,0.1714,0.159,0.1588,0.1644,0.1645,0.1647,0.1709,0,0.1086,0.1114,0.1137,0.1175,0.1192,0.1238,0.1275,0.1323,0.1373,0.1425,0.1468,0.1516,0.1523,0.1554,0.1593,0.1623,0.1659,0.1616,0.1668,0.1669,0.1553,0.1595,0.1653,0.1715,0.1717,0.1719,0.172,0,0.1084,0.1104,0.1137,0.1183,0.1197,0.123,0.1301,0.1339,0.1416,0.1459,0.1523,0.1555,0.1623,0.1617,0.1703,0.1682,0.1706,0.1723,0.1725,0.1597,0.1561,0.166,0.1736,0.1735,0.1734,0.1733,0.1732,0,0.1055,0.1102,0.1128,0.1145,0.1203,0.124,0.1281,0.1356,0.1391,0.1489,0.1527,0.1609,0.1661,0.171,0.1758,0.1745,0.1838,0.1819,0.1726,0.1718,0.1791,0.1782,0.1874,0.1874,0.1874,0.1874,0.1874,0,0.1038,0.1062,0.1121,0.1136,0.1173,0.1227,0.1283,0.134,0.1417,0.1454,0.1545,0.1583,0.1692,0.1752,0.178,0.1782,0.1863,0.1736,0.1727,0.1809,0.1801,0.1797,0.1788,0.1876,0.1876,0.1875,0.1875,0,0.0996,0.1036,0.1068,0.1136,0.1158,0.1189,0.127,0.1297,0.1392,0.1447,0.148,0.1592,0.1674,0.1753,0.1842,0.1798,0.1815,0.1794,0.1882,0.1877,0.1665,0.1657,0.169,0.1686,0.1683,0.168,0.1678,0,0.0974,0.0985,0.1055,0.1067,0.1103,0.1157,0.1179,0.1275,0.1303,0.143,0.1436,0.1557,0.1623,0.1652,0.1743,0.1789,0.1769,0.1758,0.1701,0.1659,0.1648,0.1645,0.1641,0.1673,0.1672,0.1671,0.167,0,0.0929,0.0965,0.0989,0.1007,0.1036,0.1049,0.1099,0.1115,0.1218,0.1321,0.1368,0.1418,0.1506,0.1581,0.1637,0.166,0.1752,0.1724,0.173,0.1676,0.1638,0.163,0.163,0.1659,0.1661,0.1662,0.1662,0,0.0898,0.09,0.0926,0.0931,0.0945,0.0916,0.0969,0.1002,0.1046,0.1201,0.1219,0.1355,0.1487,0.1514,0.1558,0.1581,0.1553,0.149,0.1507,0.1521,0.1437,0.1362,0.1294,0,0,0,0,0,0.086,0.0843,0.0839,0.0813,0.0811,0.0814,0.0885,0.0942,0.1064,0.1062,0.1139,0.1216,0.1293,0.1364,0.1358,0.1472,0.155,0.1453,0.1483,0.1597,0.161,0.1526,0,0,0,0,0,0,0.0829,0.0833,0.081,0.0696,0.0651,0.0625,0.067,0.0758,0.0776,0.093,0.0992,0.1108,0.1216,0.1279,0.1319,0.1342,0.1327,0.1548,0.1544,0.1589,0.1601,0.1611,0.153,0,0,0,0,0]},{"header":{"parameterUnit":"m.s-1","parameterCategory":2,"la1":30.2991,"la2":30.254,"lo1":-89.0895,"lo2":-89.0444,"dy":0.0017,"dx":0.0017,"nx":28,"ny":28,"refTime":"2024-03-29T09:00:00:Z","depth":"4","parameterNumber":3,"parameterNumberName":"V-component_of_CURRENTS"},"data":[0,0,0,0,0,0,0,0,0,0,0,0,0,0,0,0,0,0,0,0,0,0,0,0,0,0,0,0,0,0,0,0,0,0,0,0,0,0,0,0,0,0,0,0,0,0,0,0,0,0,0,0,0,0,0,0,0,0,-0.002,-0.0021,0,-0.0034,-0.0035,-0.0035,-0.0046,-0.0046,-0.0046,-0.0046,-0.0064,-0.0064,-0.0065,0,0,0,0,0,0,0,0,0,0,0,0,0,-0.0009,-0.0009,-0.002,-0.0021,-0.0021,-0.0034,-0.0035,-0.0035,-0.0046,-0.0046,-0.0046,-0.0046,-0.0064,-0.0064,-0.0065,0,0,0,0,0,0,0,0,0,0,0,0,0,-0.0018,-0.0009,-0.002,-0.0028,-0.0028,-0.0034,-0.0035,-0.0035,-0.0045,-0.0046,-0.0046,-0.0046,-0.0064,-0.0064,-0.0065,-0.0066,0,0,-0.0067,-0.0067,0,0,0,0,0,0,0,0,-0.0017,-0.0018,-0.0026,-0.0027,-0.0028,-0.0038,-0.0037,-0.0046,-0.0045,-0.0039,-0.0046,-0.0046,-0.0056,-0.0057,-0.0059,-0.0067,-0.0068,-0.0067,-0.0067,-0.0067,-0.0068,0,0,0,0,0,0,0,-0.0017,-0.0018,-0.0026,-0.0026,-0.0027,-0.0032,-0.0034,-0.0039,-0.0047,-0.004,-0.004,-0.0042,-0.0056,-0.0059,-0.006,-0.0068,-0.0067,-0.0067,-0.0068,-0.0068,-0.0074,-0.0074,0,0,0,0,0,0,-0.0014,-0.0017,-0.0026,-0.0027,-0.0023,-0.0032,-0.0034,-0.0035,-0.0047,-0.0048,-0.0042,-0.0042,-0.0058,-0.0059,-0.0061,-0.0053,-0.0067,-0.0068,-0.0068,-0.0075,-0.0074,-0.0074,0,0,0,0,0,0,-0.0014,-0.0015,-0.0025,-0.0022,-0.0024,-0.0032,-0.0034,-0.0035,-0.0038,-0.0048,-0.005,-0.0042,-0.0058,-0.006,-0.0061,-0.0054,-0.0068,-0.0069,-0.0075,-0.0074,-0.0074,-0.0044,0,0,0,0,0,0,-0.0013,-0.0015,-0.0015,-0.0022,-0.0024,-0.0025,-0.0033,-0.0035,-0.0038,-0.0039,-0.0049,-0.0051,-0.0058,-0.006,-0.0062,-0.0055,-0.0069,-0.0075,-0.0075,-0.0074,-0.0046,-0.0043,-0.0041,0,0,0,0,0,-0.0013,-0.0011,-0.0015,-0.0016,-0.0024,-0.0025,-0.0026,-0.0033,-0.0038,-0.0036,-0.0042,-0.0051,-0.0059,-0.006,-0.0062,-0.0056,-0.0075,-0.0075,-0.0074,-0.0047,-0.0044,-0.0041,0,0,0,0,0,0,-0.0007,-0.0012,-0.0017,-0.0017,-0.002,-0.0027,-0.0027,-0.0032,-0.0036,-0.0037,-0.0047,-0.0049,-0.0049,-0.0057,-0.0058,-0.0057,-0.0069,-0.0069,-0.0047,-0.0045,-0.0042,-0.0033,-0.007,0,0,0,0,0,-0.0005,-0.0005,-0.0011,-0.0011,-0.0012,-0.002,-0.0022,-0.0025,-0.003,-0.0032,-0.0039,-0.0046,-0.0049,-0.005,-0.0056,-0.0054,-0.0068,-0.0052,-0.005,-0.0048,-0.0042,-0.0057,-0.0055,-0.0073,-0.0073,-0.0073,0,0,-0.0003,-0.0006,-0.0006,-0.001,-0.0013,-0.0007,-0.0021,-0.0022,-0.0014,-0.0033,-0.0027,-0.0038,-0.0047,-0.0044,-0.0045,-0.005,-0.0051,-0.0047,-0.0045,-0.0041,-0.0056,-0.0054,-0.0053,-0.0072,-0.0072,-0.0072,0,0,0.0007,-0.0,0.0005,0.0005,0.0002,-0.0001,0.0001,-0.0005,-0.0006,-0.0002,-0.0014,-0.0019,-0.0024,-0.0028,-0.003,-0.0019,-0.004,-0.0024,-0.0002,-0.0017,-0.0015,-0.0014,-0.0034,-0.0035,-0.0021,-0.0021,-0.0021,0,0.001,0.0018,0.0007,0.0015,0.0019,0.0005,0.0017,0.0015,0.0011,0.0014,0.0005,-0.0003,-0.0014,-0.0008,-0.0004,-0.0013,-0.0028,-0.0011,-0.0013,-0.0012,-0.0012,-0.0032,-0.0034,-0.002,-0.002,-0.002,-0.002,0,0.0027,0.0034,0.0038,0.0044,0.0047,0.0054,0.0052,0.0054,0.005,0.0047,0.0048,0.0033,0.003,0.0023,0.0014,0.0015,-0.0001,-0.001,-0.0019,-0.0008,-0.0031,-0.0033,-0.0018,-0.0018,-0.0019,-0.0019,0,0,0.0037,0.0048,0.0051,0.0063,0.0065,0.0072,0.0083,0.0091,0.0103,0.0091,0.0104,0.009,0.0076,0.0072,0.0055,0.0041,0.0029,0.002,0.0018,0.0003,-0.0009,-0.0015,-0.0018,0.0017,0.0017,0.0017,-0.0028,0,0.0055,0.0079,0.008,0.0107,0.012,0.0116,0.0132,0.0136,0.0134,0.0141,0.0121,0.0125,0.0097,0.0096,0.0078,0.0045,0.0026,0.0041,-0.0019,-0.0021,-0.0026,-0.002,0.0017,-0.003,-0.003,-0.0031,-0.0031,0,0.0074,0.0089,0.0119,0.0144,0.015,0.0166,0.0188,0.0202,0.0203,0.0202,0.0194,0.0175,0.0159,0.0131,0.0077,0.0088,0.0043,0.0011,0.0008,-0.0008,-0.003,-0.0043,-0.0035,-0.0034,-0.0034,-0.0034,-0.0034,0,0.009,0.0119,0.0146,0.0154,0.0178,0.0195,0.0211,0.022,0.0243,0.0242,0.0253,0.022,0.0215,0.0156,0.0087,0.0082,0.002,0.0006,-0.0045,-0.0047,-0.0041,-0.0042,-0.0037,-0.0037,-0.0036,-0.0036,-0.0036,0,0.011,0.0133,0.0158,0.0174,0.0214,0.0222,0.0265,0.0271,0.0293,0.0328,0.0289,0.0301,0.0221,0.0175,0.0101,0.0024,0.003,-0.0039,-0.0056,-0.0028,-0.0027,-0.0043,-0.0043,-0.0038,-0.0038,-0.0037,-0.0037,0,0.0123,0.0138,0.0173,0.0207,0.0223,0.0252,0.0308,0.0341,0.0352,0.0396,0.0401,0.0367,0.0307,0.0215,0.012,0.0054,-0.0026,-0.006,-0.0025,-0.0039,-0.009,-0.0088,-0.0115,-0.0116,-0.0116,-0.0117,-0.0117,0,0.0129,0.0148,0.0197,0.0227,0.0246,0.0296,0.0336,0.0367,0.0411,0.044,0.0467,0.0419,0.0383,0.0245,0.0137,-0.001,-0.0035,-0.0084,-0.0087,-0.0083,-0.0097,-0.0094,-0.0091,-0.0118,-0.0118,-0.0118,-0.0118,0,0.0144,0.0161,0.0193,0.0255,0.0304,0.0367,0.0429,0.0465,0.0512,0.0516,0.0528,0.0454,0.0383,0.0259,0.0141,0.0035,-0.0054,-0.0089,-0.0089,-0.0092,-0.0086,-0.0099,-0.0096,-0.012,-0.0119,-0.0119,-0.0119,0,0.0156,0.0179,0.0225,0.0285,0.0351,0.043,0.0458,0.0515,0.0556,0.0584,0.0583,0.0498,0.0445,0.0282,0.0177,0.0068,0.0038,-0.0003,-0.0008,-0.0008,0.0032,0.0056,0.0056,0,0,0,0,0,0.0167,0.0202,0.0255,0.0331,0.0401,0.0448,0.0522,0.0549,0.0589,0.0605,0.06,0.0532,0.038,0.031,0.0202,0.0158,0.0012,0.0027,-0.0039,-0.0128,-0.0127,-0.0099,0,0,0,0,0,0,0.0177,0.0224,0.0256,0.0366,0.0427,0.0518,0.0569,0.0596,0.0607,0.0617,0.0537,0.0497,0.0345,0.0443,0.0198,0.0165,0.0106,-0.0046,-0.0049,-0.0129,-0.0128,-0.0126,-0.0098,0,0,0,0,0]}]]